Home > Weather > Vellore > Past weeks

Flag for India Past Weather in Vellore, Tamil Nadu, India — Yesterday and Last 2 Weeks

Now
79 °F

Light rain. Broken clouds.


Feels Like: 82 °F
Forecast: 76 / 89 °F
Wind: No wind

Location: Madras / Minambakkam

Current Time: Aug 26, 2016 at 5:49:09 PM

Latest Report: Aug 26, 2016 at 5:00 PM


Visibility: 2 mi

Pressure: 29.65 "Hg

Humidity: 89%

Dew Point: 75 °F

Location of VelloreLocation

Past Weather in Vellore — Graph

°F

Vellore Temperature Yesterday

Maximum temperature yesterday: 93 °F (at 1:30 PM)
Minimum temperature yesterday: 82 °F (at 2:00 AM)
Average temperature yesterday: 86 °F

High & Low Weather Summary for the Past Weeks

 TemperatureHumidityPressure
High100 °F (Aug 18, 2:00 PM)94% (Aug 26, 4:30 PM)29.77 "Hg (Aug 26, 4:30 PM)
Low77 °F (Aug 24, 1:30 AM)33% (Aug 16, 4:30 PM)29.50 "Hg (Aug 17, 4:30 PM)
Average89 °F63%29.64 "Hg
* Reported Aug 11 4:30 PM — Aug 26 4:30 PM, Vellore, Weather by CustomWeather, © 2016

Note: Actual official high and low records may vary slightly from our data, if they occured in-between our weather recording intervals... More about our weather records

Advertising

Vellore Weather History for the Previous 24 Hours

Scroll right to see more
 ConditionsComfort  
Time TempWeatherWind HumidityBarometerVisibility
4:30 PM
Fri, Aug 26
77 °FDrizzle. Broken clouds.No wind94%29.62 "Hg2 mi
4:00 PM77 °FDrizzle. Broken clouds.6 mph89%29.65 "Hg3 mi
3:30 PM86 °FRain. Broken clouds.6 mph75%29.65 "Hg2 mi
3:00 PM90 °FScattered clouds.2 mph63%29.65 "Hg3 mi
2:30 PM91 °FPartly sunny.2 mph56%29.65 "Hg3 mi
2:00 PM88 °FBroken clouds.3 mph66%29.65 "Hg3 mi
1:30 PM88 °FDrizzle. Broken clouds.3 mph66%29.65 "Hg3 mi
1:00 PM90 °FBroken clouds.3 mph63%29.65 "Hg4 mi
12:30 PM90 °FBroken clouds.3 mph63%29.65 "Hg4 mi
12:00 PM88 °FBroken clouds.3 mph62%29.65 "Hg4 mi
11:30 AM88 °FBroken clouds.5 mph62%29.68 "Hg4 mi
11:00 AM86 °FBroken clouds.3 mph66%29.68 "Hg4 mi
10:30 AM86 °FBroken clouds.5 mph66%29.68 "Hg4 mi
10:00 AM86 °FBroken clouds.6 mph66%29.71 "Hg4 mi
9:30 AM86 °FBroken clouds.6 mph66%29.71 "Hg4 mi
9:00 AM84 °FBroken clouds.7 mph70%29.68 "Hg4 mi
8:30 AM84 °FBroken clouds.7 mph70%29.68 "Hg4 mi
8:00 AM84 °FBroken clouds.6 mph70%29.68 "Hg4 mi
7:30 AM84 °FBroken clouds.8 mph74%29.65 "Hg4 mi
7:00 AM84 °FBroken clouds.7 mph74%29.65 "Hg4 mi
6:30 AM84 °FBroken clouds.5 mph74%29.62 "Hg4 mi
6:00 AM84 °FPartly cloudy.5 mph74%29.62 "Hg4 mi
5:30 AM84 °FPassing clouds.5 mph74%29.62 "Hg4 mi
5:00 AM84 °FPassing clouds.5 mph74%29.62 "Hg4 mi
4:30 AM84 °FPassing clouds.5 mph74%29.62 "Hg4 mi
4:00 AM84 °FPassing clouds.5 mph74%29.62 "Hg4 mi
3:30 AM84 °FPassing clouds.5 mph79%29.65 "Hg4 mi
3:00 AM84 °FPassing clouds.7 mph79%29.65 "Hg4 mi
2:30 AM84 °FPassing clouds.5 mph79%29.65 "Hg4 mi
2:00 AM86 °FPassing clouds.9 mph75%29.65 "Hg4 mi
1:30 AM86 °FPassing clouds.9 mph75%29.65 "Hg4 mi
1:00 AM86 °FPassing clouds.9 mph75%29.65 "Hg4 mi
12:30 AM86 °FPassing clouds.8 mph75%29.65 "Hg4 mi
12:00 AM86 °FPassing clouds.8 mph75%29.65 "Hg4 mi
11:30 PM
Thu, Aug 25
86 °FPassing clouds.6 mph75%29.65 "Hg4 mi
11:00 PM86 °FPassing clouds.6 mph75%29.65 "Hg4 mi
10:30 PM86 °FPassing clouds.6 mph70%29.65 "Hg4 mi
10:00 PM86 °FPassing clouds.6 mph70%29.65 "Hg4 mi
9:30 PM86 °FPassing clouds.No wind70%29.65 "Hg4 mi
9:00 PM86 °FPartly cloudy.No wind66%29.65 "Hg4 mi
8:30 PM86 °FPartly cloudy.No wind66%29.65 "Hg4 mi
8:00 PM88 °FPartly cloudy.No wind62%29.65 "Hg4 mi
7:30 PM88 °FPartly cloudy.No wind59%29.65 "Hg4 mi
7:00 PM88 °FPartly cloudy.No wind59%29.65 "Hg4 mi
6:30 PM88 °FBroken clouds.3 mph59%29.62 "Hg4 mi
6:00 PM88 °FScattered clouds.5 mph59%29.59 "Hg4 mi
5:30 PM90 °FPartly sunny.5 mph59%29.59 "Hg4 mi
5:00 PM90 °FPartly sunny.5 mph59%29.59 "Hg4 mi
Weather by CustomWeather, © 2016

See weather overviewHow to use our weather pages